Content
SEND FEEDBACK

Daily
Averages
Monthly
Summary
Spain

MAHON, SPAIN


Home > Europe > Spain
Elevation: 269 feet     Latitude: 39 52N     Longitude: 004 14E

WEATHER
 
SELECT A DAY
Number of Records: 255,319;   Date Range: 7/1/96 - 9/30/14
 
SHARE

PRINT THIS DATA

[ ← Previous Day ]
WEATHER ALMANAC - MAY 6, 2013
[ Next Day → ]
[ °C ]   °F
Weather ElementAverageHighLow
Temperature62.4 °F69 °F (2:00 pm)56 °F (2:00 am)
Dewpoint57.6 °F59 °F (8:30 am)53 °F (2:00 am)
Humidity84.7 %100 % (5:00 am)54 % (2:00 pm)
Barometer30.10 in30.15 in (12:00 pm)30.06 in (7:30 pm)
Wind Speed8.8 mph12.7 mph (11:30 am)
Weather ElementAverage
Visibility7.1 mi
Wind DirectionWSW (241.8 °)

Weather ElementTotal
Precipitation---
Heating Degree Days2.5 (Base 65)
Growing Degree Days12.5 (Base 50)
Averaged from 44 records on May 6, 2013
WEATHER CONDITIONS BREAKOUT
WIND DIRECTION BREAKOUT
WEATHER BY HOUR - MAY 6, 2013
[ °C ]   °F
Local TimeTemperatureDewpointHumidityBarometerVisibilityWind DirectionWind SpeedGust SpeedPrecipitationEventsConditions
12:30 AM57.2 °F53.6 °F88 %30.12 in6.2 miWNW (290°)3.5 mphPartly Cloudy
2:00 AM56.0 °F53.0 °F85 %30.14 in11.0 miWNW (300°)4.6 mphMostly Cloudy
2:00 AM57.2 °F53.6 °F88 %30.12 in6.2 miWNW (300°)4.6 mphPartly Cloudy
5:00 AM57.2 °F57.2 °F100 %30.09 in6.2 miWSW (250°)5.8 mphPartly Cloudy
5:30 AM57.2 °F57.2 °F100 %30.09 in6.2 miWest (260°)8.1 mphPartly Cloudy
6:00 AM57.2 °F57.2 °F100 %30.09 in6.2 miWest (270°)6.9 mphPartly Cloudy
6:30 AM57.2 °F57.2 °F100 %30.09 in6.2 miWest (260°)9.2 mphPartly Cloudy
7:00 AM57.2 °F57.2 °F100 %30.09 in6.2 miWest (260°)9.2 mphPartly Cloudy
7:30 AM57.2 °F57.2 °F100 %30.09 in6.2 miWest (270°)8.1 mphPartly Cloudy
8:00 AM59.0 °F57.0 °F92 %30.11 in12.0 miWest (260°)9.2 mphScattered Clouds
8:00 AM59.0 °F57.2 °F94 %30.09 in6.2 miWest (270°)9.2 mphPartly Cloudy
8:30 AM60.8 °F59.0 °F94 %30.09 in6.2 miWest (270°)10.4 mphPartly Cloudy
9:00 AM62.6 °F59.0 °F88 %30.09 in6.2 miWest (270°)9.2 mphPartly Cloudy
9:30 AM64.4 °F57.2 °F77 %30.12 in6.2 miWest (270°)9.2 mphPartly Cloudy
10:00 AM64.4 °F59.0 °F83 %30.12 in6.2 miWSW (250°)11.5 mphPartly Cloudy
10:30 AM64.4 °F59.0 °F83 %30.12 in6.2 miWSW (250°)10.4 mphPartly Cloudy
11:00 AM64.4 °F59.0 °F83 %30.12 in6.2 miWSW (240°)10.4 mphPartly Cloudy
11:30 AM64.4 °F59.0 °F83 %30.12 in6.2 miWSW (240°)12.7 mphPartly Cloudy
12:00 PM64.4 °F57.2 °F77 %30.15 in6.2 miWSW (250°)11.5 mphPartly Cloudy
12:30 PM66.2 °F59.0 °F78 %30.15 in6.2 miWSW (250°)10.4 mphPartly Cloudy
1:00 PM66.2 °F57.2 °F73 %30.12 in6.2 miWSW (240°)10.4 mphPartly Cloudy
1:30 PM66.2 °F55.4 °F68 %30.12 in6.2 miSW (230°)11.5 mphPartly Cloudy
2:00 PM66.2 °F55.4 °F68 %30.12 in6.2 miSW (230°)10.4 mphPartly Cloudy
2:00 PM69.0 °F56.0 °F54 %30.13 in19.0 miSW (230°)10.4 mphScattered Clouds
2:30 PM68.0 °F57.2 °F68 %30.12 in6.2 miSW (230°)10.4 mphPartly Cloudy
3:00 PM66.2 °F59.0 °F78 %30.12 in6.2 miSW (220°)10.4 mphPartly Cloudy
3:30 PM66.2 °F59.0 °F78 %30.12 in6.2 miSW (220°)11.5 mphPartly Cloudy
4:00 PM68.0 °F57.2 °F68 %30.09 in6.2 miWSW (240°)11.5 mphPartly Cloudy
4:30 PM66.2 °F57.2 °F73 %30.09 in6.2 miSW (220°)11.5 mphPartly Cloudy
5:00 PM66.2 °F57.2 °F73 %30.09 in6.2 miSW (220°)10.4 mphPartly Cloudy
5:30 PM66.2 °F57.2 °F73 %30.09 inSW (220°)9.2 mphClear
6:00 PM66.2 °F57.2 °F73 %30.09 inSW (220°)9.2 mphClear
6:30 PM64.4 °F57.2 °F77 %30.09 inSW (220°)10.4 mphClear
7:00 PM64.4 °F59.0 °F83 %30.09 inSW (220°)9.2 mphClear
7:30 PM64.4 °F59.0 °F83 %30.06 inSW (220°)9.2 mphClear
8:00 PM64.0 °F58.0 °F75 %30.09 in12.0 miSW (220°)9.2 mphClear
8:00 PM62.6 °F59.0 °F88 %30.09 inSW (220°)8.1 mphClear
8:30 PM60.8 °F59.0 °F94 %30.09 inSW (220°)5.8 mphClear
9:00 PM60.8 °F59.0 °F94 %30.09 inSW (220°)4.6 mphClear
9:30 PM59.0 °F57.2 °F94 %30.09 inSW (220°)4.6 mphClear
10:00 PM59.0 °F59.0 °F100 %30.09 inSW (220°)4.6 mphClear
10:30 PM59.0 °F59.0 °F100 %30.09 inSSW (210°)5.8 mphClear
11:00 PM59.0 °F59.0 °F100 %30.12 inSW (220°)6.9 mphClear
11:30 PM59.0 °F59.0 °F100 %30.09 inSW (230°)6.9 mphClear
Hourly data recorded from LEMH, located miles away from Mahon, Spain







STORIES FROM OUR PARTNERS